ROMMA est une association bénévole à but non lucratif. Votre soutien est indispensable : ADHERER à ROMMA ou FAIRE un DON

Chambon - (38, Isère)

Oisans (2460 m)   Longitude: 06° 10' 42" E   Latitude: 45° 01' 32" N Station partenaire n°803
 

Détail journalier du     <<     >>

Température Humidité Vent Dir Rafale Dir. rafale Neige 1 Neige 2
Heure (°C) (%) (km/h) (km/h) (cm) (cm)
01:00 -2.6522SE5SSE169202
02:00 -2.5522ENE5ENE169202
03:00 -2.6523N8N169202
04:00 -2.4413NNE8NNE169202
05:00 -2.4434NE10NE169202
06:00 -2.3448NE17E169202
07:00 -2.3448NE16NE169202
08:00 -1.9333ENE10ENE169202
09:00 3.0272NE6NE168202
10:00 0.7334NNE8NNE168202
11:00 4.0212N6N168202
12:00 3.0243SO11SO168202
13:00 3.1256SO14SO168202
14:00 3.02911SO18SO168202
15:00 3.23712SO18SO168202
16:00 3.64112SO19SO168202
17:00 3.44512SO20SO168202
18:00 2.15113SO20SO168202
19:00 0.75911SO22SO168202
20:00 -0.4624SO10SO168202
21:00 -0.8622N6N168202
22:00 -1.6632S5SSO168202
23:00 -1.9692S4SO168202
minuit

Graphique du 31-03-2019

 

Serveur OMMA